Regional Weather Roundup
Issued by NWS Burlington, VT

Home | Current Version | Previous Version | Text Only | Print | Product List | Glossary On
Versions: 1 2 3 4 5 6 7 8 9 10 11 12 13 14 15 16 17 18 19 20 21 22 23 24 25 26 27 28 29 30 31 32 33 34 35 36 37 38 39 40 41 42 43 44 45 46 47 48 49 50
000
ASUS41 KBTV 311130
RWRBTV
VERMONT REGIONAL WEATHER ROUNDUP
NATIONAL WEATHER SERVICE BURLINGTON VT
700 AM EDT MON AUG 31 2015

NOTE: "FAIR" INDICATES FEW OR NO CLOUDS BELOW 12,000 FEET WITH NO
SIGNIFICANT WEATHER AND/OR OBSTRUCTIONS TO VISIBILITY.

* THESE REPORTS ARE NOT UNDER NWS QUALITY CONTROL AND/OR DO NOT
  REPORT WEATHER SUCH AS PRECIPITATION AND FOG.

VTZ001>019-311200-
_____VERMONT_____


CITY           SKY/WX    TMP DP  RH WIND       PRES   REMARKS
BURLINGTON     PTCLDY    67  60  78 S7        29.95F
MONTPELIER     CLEAR     59  57  93 CALM      30.02S
MORRISVILLE    CLOUDY    59  57  93 CALM      29.98S FOG
ST. JOHNSBURY*   N/A     59  57  93 MISG      29.96S
LYNDONVILLE*   FOG       57  56  98 CALM      29.99F VSB<1/4
MIDDLEBURY*    FAIR      63  63 100 S3        29.97F
RUTLAND*       PTCLDY    61  55  82 CALM      30.02S
SPRINGFIELD    FOG       57  56  96 CALM      30.01S VSB 1/4
HIGHGATE*      MOCLDY    67  62  84 S5        29.92S
NEWPORT*       MOCLDY    61  59  91 S5        29.96S
BENNINGTON     CLOUDY    60  58  92 CALM      30.03S FOG
SUTTON*          N/A     55 N/A N/A MISG        N/A
GALLUP MILLS*    N/A     52 N/A N/A MISG        N/A
MT. MANSFIELD*   N/A     55 N/A N/A NW25        N/A

_____LAKE CHAMPLAIN_____


CITY           SKY/WX    TMP DP  RH WIND       PRES   REMARKS
COLCHESTER RF*   N/A     68  66  94 S16         N/A
DIAMOND ISL*     N/A     66  63  88 S6          N/A

$$

NYZ007-026>031-035-052-083-311200-
_____NORTHERN NEW YORK_____


CITY           SKY/WX    TMP DP  RH WIND       PRES   REMARKS
PLATTSBURGH    CLEAR     62  58  86 S3        29.94S
SARANAC LAKE   PTCLDY    61  60  97 SW6       29.99S FOG
MASSENA        MOCLDY    66  59  78 SW9       29.94S
OGDENSBURG*    MOCLDY    66  63  88 SW6       29.96R
POTSDAM*       CLOUDY    68  64  88 SW9       29.96R
STARK FALLS*     N/A     68 N/A N/A SW3         N/A
WATERTOWN      MOCLDY    66  64  93 S6        29.98R FOG
FT DRUM        CLEAR     67  64  87 SW9       29.98R
ALBANY         PTCLDY    65  63  93 CALM      30.01R FOG
GLENS FALLS    CLOUDY    61  59  93 CALM      29.99S FOG

$$
NHZ002-005-011-311200-
_____NEW HAMPSHIRE_____


CITY           SKY/WX    TMP DP  RH WIND       PRES   REMARKS
LEBANON        FOG       59  57  93 CALM      29.99S VSB 1
KEENE          CLOUDY    61  55  82 N3        30.02R
MT WASHINGTON  FOG       46  46 100 W52G63      N/A  VSB 0
PLYMOUTH       FOG       57  56  97 CALM      29.98S VSB<1/4
WHITEFIELD     CLEAR     53  51  93 CALM      29.98S

$$

_____REGIONAL QUEBEC LOCATIONS_____


CITY           SKY/WX    TMP DP  RH WIND       PRES   REMARKS
MONTREAL       MOCLDY    66  63  88 SW14G20   29.90R
QUEBEC CITY    MOCLDY    64  61  88 SW16      29.80F
SHERBROOKE     CLOUDY    63  61  94 SW7       29.92S

_____REGIONAL ONTARIO LOCATIONS_____


CITY           SKY/WX    TMP DP  RH WIND       PRES   REMARKS
OTTAWA         PTCLDY    63  61  94 SW8       29.94R FOG

______KEY______
VSB  - VISIBILITY IN MILES
WCI  - WIND CHILL INDEX
HX   - HEAT INDEX
$$
NNNN



USA.gov is the U.S. government's official web portal to all federal, state and local government web resources and services.